Regional Weather Roundup
Issued by NWS

Home | Current Version | Previous Version | Text Only | Print | Product List | Glossary On
Versions: 1 2 3 4 5 6 7 8 9 10 11 12 13 14 15 16 17 18 19 20 21 22 23 24 25 26 27 28 29 30 31 32 33 34 35 36 37 38 39 40 41 42 43 44 45 46 47 48 49 50
000
ASUS43 KLSX 191507
RWRMO

WEATHER SUMMARY FOR MISSOURI
NATIONAL WEATHER SERVICE SPRINGFIELD MO
1000 AM CDT THU OCT 19 2017

NOTE: "FAIR" INDICATES FEW OR NO CLOUDS BELOW 12,000 FEET WITH NO
       SIGNIFICANT WEATHER AND/OR OBSTRUCTIONS TO VISIBILITY.
       CURRENT SKY AND/OR WEATHER CONDITIONS ARE NOT AVAILABLE FOR
       CHILLICOTHE AND FARMINGTON.

MOZ001>031-035>038-043-044-053-054-191600-
...NORTHERN AND WESTERN MISSOURI...

CITY           SKY/WX    TMP DP  RH WIND       PRES   REMARKS
KANSAS CTY INT SUNNY     62  51  67 SW12      30.12R
KANSAS C DTWN  SUNNY     65  51  60 SW5       30.12R
LEE`S SUMMIT   SUNNY     64  49  57 SW12      30.14R
ST JOSEPH      SUNNY     59  53  80 S3        30.11R
CHILLICOTHE      N/A     60  52  74 S5        30.15R
KIRKSVILLE     SUNNY     62  53  72 W3        30.16R

$$
MOZ066>068-077>081-088>096-101>105-191600-
...SOUTHWEST MISSOURI...

CITY           SKY/WX    TMP DP  RH WIND       PRES   REMARKS
SPRINGFIELD    SUNNY     63  52  67 S12       30.20R
JOPLIN         SUNNY     67  53  61 S14       30.19R
BRANSON        MOSUNNY   66  50  55 S5        30.24R

$$
MOZ032>034-039>042-045>050-055>058-069>072-191600-
...CENTRAL MISSOURI...

CITY           SKY/WX    TMP DP  RH WIND       PRES   REMARKS
COLUMBIA       SUNNY     63  51  65 SW7       30.18R
JEFFERSON CITY SUNNY     61  50  67 CALM      30.19R
ROLLA          SUNNY     64  51  62 SW12      30.22R
SEDALIA        SUNNY     67  51  56 SW13      30.17R
WHITEMAN AFB   SUNNY     64  50  61 SW12      30.11R
WARRENSBURG    SUNNY     61  50  67 S8        30.15R
OSAGE BEACH    SUNNY     61  51  70 S6        30.21R

$$
MOZ051-052-059>065-191600-
...EAST CENTRAL MISSOURI...

CITY           SKY/WX    TMP DP  RH WIND       PRES   REMARKS
ST LOUIS INTL  MOSUNNY   65  52  62 SW8       30.20R
SPIRIT OF STL  SUNNY     66  52  60 SW5       30.19R
ST CHARLES     SUNNY     63  51  65 SW5       30.19R

$$
MOZ072>076-082>087-097>100-106>115-191600-
...SOUTH CENTRAL AND SOUTHEAST MISSOURI...

CITY           SKY/WX    TMP DP  RH WIND       PRES   REMARKS
CAPE GIRARDEAU SUNNY     64  48  56 S8        30.26R
FARMINGTON     SUNNY     65  51  60 S6        30.24R
POPLAR BLUFF   SUNNY     62  51  67 S6        30.25R
WEST PLAINS    SUNNY     65  52  62 SW7       30.25R

$$


USA.gov is the U.S. government's official web portal to all federal, state and local government web resources and services.